Dewpoint
70 71 72 74 73 74 73 73 74 74 74 74 74 73 73 73 73 73 72 72 72 72 73 73 72 72 72 71 71 71 70 70 70 69 67 67 67 67 67 67 67 66 67 69 70 71 71 70 70 70 70 69 69 70 70 71 71 70 70 70 70 71 70 69 69 69 69 69 70 70 69 70 69 69 69 69 69 69 68 67 67 66 66 66 66
70 71 72 73 74 74 74 74 74 74 73 74 73 73 73 73 73 73 73 72 72 72 72 72 72 72 72 71 71 70 70 69 69 69 69 68 66 66 66 67 66 66 65 66 69 70 70 69 69 69 69 69 70 69 70 70 70 69 69 69 69 69 70 69 69 69 69 69 69 69 69 70 69 69 69 69 68 68 68 67 67 66 66 67 67
70 71 72 72 73 74 73 73 73 73 73 73 73 73 73 73 73 73 73 72 72 73 72 72 72 72 72 71 71 70 70 69 69 69 68 68 68 66 66 66 66 66 66 65 65 68 69 69 69 69 69 68 69 69 69 69 69 69 69 69 69 69 69 69 69 69 69 69 69 69 69 69 69 69 69 69 68 68 67 67 67 67 66 67 67
70 71 72 72 73 73 73 73 73 73 73 73 73 73 73 73 73 73 72 72 73 73 73 72 72 72 72 71 71 70 69 69 69 69 69 68 67 66 66 66 66 65 66 66 65 69 69 68 68 68 68 68 68 69 69 69 69 69 69 69 69 69 69 69 69 69 69 68 68 68 68 65 69 70 69 69 68 68 67 67 67 68 68 67 67
70 71 71 72 72 73 73 73 73 73 73 73 73 73 73 73 73 73 73 73 73 73 73 72 72 72 72 72 71 70 69 69 68 68 69 68 67 67 66 66 66 66 65 65 66 68 68 68 68 68 68 68 69 69 69 69 69 69 70 70 70 70 70 70 69 69 69 69 69 69 64 66 67 69 69 69 69 68 68 68 68 68 68 68 68
70 71 71 71 72 72 73 73 73 73 73 72 73 73 73 73 73 73 73 73 73 73 73 72 72 72 72 72 71 70 69 69 69 69 68 67 66 66 66 66 65 66 66 66 66 68 67 68 68 68 68 69 69 69 69 69 69 71 71 71 71 71 72 71 71 71 71 70 69 68 66 64 67 68 69 70 70 69 69 69 69 68 68 68 68
70 71 71 71 71 72 73 73 72 72 72 72 73 73 73 73 73 73 73 73 73 73 73 73 72 72 72 72 71 70 70 69 69 69 67 66 67 67 66 66 66 66 66 66 67 66 67 67 68 68 69 69 69 69 69 70 70 71 71 71 71 72 72 72 72 72 72 72 68 67 66 63 67 67 70 70 70 69 69 69 69 69 68 68 68
70 71 71 71 71 73 73 73 72 72 72 72 73 73 73 73 73 73 73 73 73 73 73 73 73 72 72 72 72 71 70 69 69 68 68 67 66 66 66 65 66 66 66 66 66 67 67 68 68 69 69 69 69 69 69 70 70 70 70 71 71 70 71 71 71 72 71 70 68 68 65 64 66 67 69 69 69 69 70 69 69 69 69 68 68
69 70 70 71 71 73 73 73 72 72 72 73 73 73 73 73 73 73 73 73 73 73 73 73 72 72 72 72 71 70 69 69 69 69 68 67 67 66 65 65 65 66 67 68 67 67 67 67 68 69 68 68 69 69 69 70 70 70 70 70 70 71 71 71 72 70 68 68 68 66 60 64 66 66 68 70 70 70 70 69 69 69 69 68 68
69 70 70 70 71 72 73 73 73 72 72 73 73 73 73 73 73 73 73 73 73 73 73 72 72 72 72 72 70 69 69 69 68 67 67 66 65 66 66 65 66 66 66 67 67 68 68 68 69 68 68 69 69 69 69 69 70 70 70 70 70 71 71 73 72 70 66 65 58 59 63 67 65 67 69 70 70 70 70 70 69 69 69 69 68
69 69 70 71 71 73 72 73 73 72 73 73 73 73 72 73 73 73 73 73 73 73 72 72 72 72 72 71 71 71 70 69 69 68 67 66 65 66 66 66 68 67 67 67 68 68 68 69 68 68 69 69 69 69 69 69 70 70 71 70 71 71 72 73 71 67 66 61 63 65 68 69 66 67 70 70 70 70 70 70 69 69 68 68 67
69 69 70 71 73 72 73 73 73 73 73 73 73 73 72 73 73 73 73 73 73 72 72 72 72 72 72 72 72 71 69 69 69 68 67 67 66 66 66 66 67 67 67 68 68 68 69 67 68 68 68 69 69 69 69 70 70 70 71 71 71 72 72 72 65 66 64 62 63 63 66 67 68 69 71 71 71 70 70 69 69 68 68 68 68
68 69 69 71 71 72 73 73 73 73 73 73 73 73 72 73 73 73 73 73 73 72 72 72 72 72 72 72 71 70 69 68 68 67 67 67 66 66 66 66 67 68 68 68 70 69 68 68 68 68 69 69 69 69 69 69 70 70 71 71 72 72 73 71 60 60 60 61 63 65 66 67 68 70 71 71 71 70 69 69 68 68 68 69 69
68 69 69 70 70 73 73 73 73 73 73 73 73 73 73 72 73 73 73 73 72 72 72 72 72 72 71 71 70 69 69 68 68 68 68 68 67 67 66 67 67 68 68 68 70 69 68 68 69 69 69 69 69 70 69 70 70 70 71 71 72 72 73 68 65 62 62 63 65 64 66 68 68 71 70 70 70 70 70 69 68 68 69 69 69
68 69 69 69 70 71 73 73 73 73 73 73 73 73 73 73 73 73 73 72 72 72 72 72 72 71 71 71 70 70 69 68 68 67 67 67 67 67 67 67 67 68 68 68 69 69 68 69 69 70 69 69 68 69 70 70 70 71 71 71 71 72 72 64 63 64 65 66 67 66 67 67 71 70 69 70 70 70 69 68 68 69 69 69 69
68 69 69 69 70 70 71 73 73 73 73 73 73 73 73 73 73 73 73 72 72 72 72 71 71 71 70 70 70 69 69 68 68 67 67 67 67 67 67 67 67 68 68 68 69 69 68 70 69 69 69 68 69 69 70 70 71 71 71 71 71 71 69 67 66 66 67 68 69 70 69 70 71 70 70 70 69 69 69 69 69 69 69 69 69
69 69 69 69 69 70 71 72 73 73 73 73 73 73 73 73 73 73 72 72 72 72 71 71 71 71 70 70 70 69 69 68 68 68 67 67 67 67 67 67 67 67 68 68 68 68 69 69 69 68 69 69 69 70 70 71 71 71 70 70 70 70 69 69 68 69 70 70 70 70 70 70 71 71 70 70 70 70 69 69 69 70 69 69 69
68 69 69 69 69 70 71 71 72 72 72 73 73 73 73 73 73 72 72 72 72 71 71 71 70 70 70 70 70 69 69 68 68 68 68 67 67 67 67 67 67 67 67 68 68 68 68 69 68 69 69 69 70 70 70 71 71 71 70 69 70 70 70 70 69 69 70 70 70 71 70 71 71 71 70 70 70 70 70 70 70 70 69 69 69
68 69 69 69 69 70 71 72 72 72 72 72 72 72 72 72 72 72 72 72 72 71 71 70 70 70 69 69 68 68 68 68 68 68 68 68 68 67 67 67 67 67 67 68 68 68 68 69 69 69 69 70 70 70 70 70 70 70 70 69 70 70 70 69 68 69 70 69 69 69 70 71 71 70 70 70 70 70 70 69 69 69 69 68 68
68 68 68 69 69 70 71 72 72 72 71 71 72 72 72 72 72 72 72 72 71 71 70 70 70 69 69 68 68 68 68 68 68 68 68 68 68 68 68 67 68 68 68 68 68 68 68 69 69 69 69 70 70 70 70 70 70 69 69 70 69 69 67 68 68 69 69 70 70 69 70 71 70 70 70 70 70 70 70 69 68 68 68 68 68
67 68 68 68 70 71 71 71 71 72 71 72 71 71 71 72 72 72 72 71 71 71 70 70 69 69 69 68 68 66 66 66 67 67 69 68 69 68 68 68 68 68 68 68 68 68 69 69 69 69 69 69 69 70 69 68 67 69 69 69 69 67 67 68 68 69 69 69 70 70 70 70 70 70 71 71 70 70 69 69 68 68 68 67 67
66 66 67 68 70 70 70 71 71 71 71 72 71 71 71 71 71 71 71 70 70 70 70 68 70 67 69 68 66 67 65 64 66 69 67 68 68 69 69 69 68 68 68 68 68 68 68 68 69 69 69 69 69 66 66 68 65 67 69 69 67 67 67 67 67 68 69 69 69 70 70 70 70 70 70 70 70 69 69 69 69 68 68 67 67
64 65 65 67 69 70 70 70 71 71 71 71 71 71 71 71 70 70 70 71 71 70 68 69 66 67 67 67 68 67 66 66 66 68 69 69 68 68 69 69 69 68 68 68 68 68 69 69 69 69 69 70 66 65 64 63 61 68 69 67 66 66 66 66 67 67 67 68 68 70 70 69 69 69 70 70 69 69 68 68 68 68 67 67 66
63 64 64 67 69 69 70 70 70 71 71 71 71 71 70 70 70 70 70 69 69 69 67 67 66 66 67 67 67 67 67 66 69 69 69 68 68 69 68 69 69 69 69 70 70 70 70 70 70 70 71 69 65 65 64 63 61 64 66 67 66 66 66 66 66 66 67 67 67 68 68 68 68 69 70 69 69 68 69 68 67 67 67 65 64
63 63 65 67 68 69 69 70 70 70 70 70 70 70 70 70 70 69 69 69 67 67 66 66 66 66 66 67 67 67 68 66 67 68 68 67 65 65 66 65 67 66 70 66 66 67 67 66 66 68 67 67 66 64 63 60 65 65 66 67 66 65 65 65 65 66 66 66 66 67 67 67 67 67 68 68 68 68 68 67 66 65 64 63 62
63 62 64 67 68 68 69 70 70 70 70 70 70 70 70 69 69 69 68 68 67 66 66 66 66 66 66 66 67 67 68 67 67 67 67 66 66 66 66 66 66 67 69 67 66 66 66 66 67 66 65 66 66 63 61 64 65 66 67 67 66 65 65 65 65 65 65 65 64 65 64 64 64 64 65 66 66 66 67 66 64 63 62 61 61
63 62 64 66 67 68 69 69 69 70 70 70 70 70 69 69 69 69 68 67 67 66 66 66 66 65 65 67 67 67 68 68 68 67 67 67 67 67 67 67 67 67 68 67 67 67 66 66 66 64 62 64 63 62 65 63 65 66 67 66 65 64 64 64 64 63 63 63 63 63 62 62 62 62 63 63 63 63 63 64 64 60 59 59 59
62 62 64 65 66 67 69 69 69 69 69 70 69 69 69 69 69 69 68 68 67 66 66 67 66 65 66 67 69 68 68 68 68 68 68 67 67 68 68 67 68 68 69 67 66 66 66 65 64 66 62 62 64 66 65 64 65 65 66 66 64 63 63 63 62 62 61 61 61 60 60 59 59 59 60 61 61 61 61 61 62 61 58 58 58
62 62 64 64 65 66 68 68 69 69 69 69 69 69 69 69 69 68 67 68 67 66 66 67 66 66 67 68 70 68 68 68 68 68 67 67 67 67 67 67 68 68 67 67 66 66 67 67 66 66 66 66 65 65 65 65 65 64 65 65 63 63 62 61 60 59 59 59 59 56 57 56 57 56 56 57 57 58 59 58 60 61 59 59 58
62 62 63 64 64 66 68 68 68 68 69 69 69 68 68 68 68 68 67 68 66 65 66 66 66 67 68 69 69 69 68 68 68 67 67 67 67 67 68 67 68 67 67 67 67 67 66 67 66 66 66 65 65 65 64 65 65 64 64 64 63 62 61 59 58 58 58 58 57 55 55 55 55 55 55 55 56 56 57 57 58 59 58 58 58
63 63 63 64 64 65 67 67 68 69 69 69 68 68 68 68 68 68 66 66 66 66 66 66 66 68 69 69 69 69 68 68 67 67 66 66 66 66 66 67 67 67 67 67 67 68 67 67 67 65 65 65 65 65 60 61 60 59 62 63 63 61 59 58 58 58 58 57 57 56 54 54 54 54 55 54 54 55 55 56 57 56 56 57 57
62 63 63 64 64 64 66 67 67 68 68 68 68 68 68 67 68 67 66 66 66 65 66 66 68 68 68 68 68 68 68 67 67 66 66 66 66 66 66 66 66 67 68 67 67 68 68 67 66 66 67 65 60 56 56 56 56 57 58 60 60 59 57 56 57 58 58 57 57 56 56 54 54 54 53 53 53 54 54 54 54 55 55 56 57
63 63 64 64 64 64 65 66 67 68 68 67 68 67 67 67 67 67 66 67 66 65 66 67 67 67 67 67 68 68 67 66 66 67 68 66 66 65 65 66 66 66 67 68 68 67 67 67 65 66 63 58 57 56 55 55 54 54 55 56 56 57 57 57 57 57 56 56 55 55 55 57 55 55 53 53 53 53 53 53 53 54 54 54 54
63 63 64 64 64 65 66 66 67 67 67 67 67 67 67 67 67 66 66 66 65 65 67 67 67 67 67 67 68 69 67 66 66 67 67 66 66 65 66 65 65 67 67 67 66 65 64 63 63 62 61 56 55 55 54 53 53 52 52 53 54 54 54 54 55 55 55 55 55 54 53 52 53 54 56 54 53 52 52 52 52 52 53 52 52
63 63 64 64 64 65 65 66 66 66 67 66 67 67 66 66 66 65 65 66 64 65 67 67 67 67 67 67 68 69 68 67 67 67 66 66 65 65 65 66 65 66 67 66 65 63 62 61 60 57 56 56 55 56 53 53 52 52 52 51 50 50 50 49 49 48 48 48 48 48 49 48 48 48 49 47 60 52 51 50 51 50 51 52 51
63 63 64 64 64 64 65 65 66 65 66 66 66 66 66 66 65 67 65 65 65 67 67 67 67 67 67 67 68 68 67 67 67 66 65 65 65 65 65 66 66 65 65 65 63 62 61 61 59 57 55 55 54 52 52 51 51 50 51 50 50 49 47 46 46 46 45 46 46 47 48 48 49 51 51 46 49 55 53 52 51 51 50 50 51
63 63 63 64 64 64 65 65 65 65 65 65 65 66 66 65 65 66 65 65 66 67 68 68 68 67 67 67 67 67 66 67 67 67 65 65 65 65 65 65 65 65 64 64 63 62 59 59 59 58 55 54 52 51 51 51 50 50 50 49 49 49 47 47 46 46 47 44 45 46 47 49 51 54 45 45 45 48 50 46 47 48 49 49 48
63 63 64 64 63 64 64 65 65 65 65 65 65 65 65 65 65 65 66 66 67 67 68 68 68 68 67 67 67 67 66 67 67 67 66 65 65 64 64 64 65 64 63 62 62 61 59 58 58 57 55 53 51 49 49 49 50 49 48 49 49 49 49 50 52 52 45 44 44 45 45 46 45 45 45 45 44 42 44 48 49 50 47 46 46
63 63 63 64 63 63 64 65 65 65 65 65 65 65 65 65 65 66 65 65 66 67 68 68 68 68 67 67 67 67 67 66 67 67 66 66 65 65 65 64 64 62 62 61 61 60 58 58 58 57 56 53 51 50 49 50 49 49 48 48 48 49 50 50 47 48 49 48 49 49 48 46 46 45 44 45 44 43 43 42 41 41 45 45 45
63 63 63 63 63 63 63 65 64 65 66 65 65 65 65 65 65 65 64 65 65 67 67 68 68 67 67 67 67 66 66 66 65 66 66 66 65 65 64 64 63 61 61 60 59 57 57 57 57 54 53 52 51 50 49 48 47 47 48 46 48 48 47 47 46 47 48 47 47 48 47 47 46 46 45 45 45 44 44 45 50 43 45 48 45
63 63 63 63 63 63 63 64 64 66 65 65 64 64 64 64 64 64 64 64 65 65 66 67 67 67 67 67 67 66 66 66 66 65 65 67 64 63 63 63 63 61 60 59 59 58 57 56 56 53 51 50 49 48 48 45 43 42 44 44 43 47 52 47 46 46 46 45 46 46 48 44 44 46 45 47 45 45 44 43 43 44 44 43 45
62 62 62 62 63 63 63 64 64 65 65 65 64 64 64 64 64 64 64 64 65 65 65 66 66 67 67 66 66 65 65 65 66 65 66 64 63 62 62 62 61 60 59 59 58 61 57 55 53 51 51 49 48 48 48 45 45 40 40 42 42 41 46 45 46 45 45 46 46 45 46 43 42 44 47 45 44 44 44 44 45 45 43 44 43
62 62 62 62 63 63 63 64 64 65 65 65 64 64 64 64 64 63 64 63 63 64 66 66 67 66 66 66 65 65 65 65 65 65 64 63 62 61 61 60 60 60 58 58 57 57 56 54 52 51 50 53 51 50 48 49 46 45 45 41 38 36 39 43 43 44 45 46 47 47 49 45 42 43 46 44 42 42 44 45 44 45 45 45 45
63 62 62 62 63 63 63 64 64 65 65 65 64 64 65 64 64 64 64 64 64 65 65 65 66 66 65 65 65 65 65 64 65 64 63 62 61 61 61 60 59 58 57 57 56 56 56 56 54 53 51 48 50 49 53 54 47 42 39 44 40 37 33 32 41 40 44 44 45 45 47 43 45 45 44 40 42 43 41 42 43 44 45 46 46
62 62 62 62 63 63 64 64 65 65 65 65 65 65 65 63 64 64 64 65 65 64 64 64 65 65 65 65 65 65 65 64 64 63 62 61 60 60 59 59 59 59 58 56 55 55 55 56 56 54 51 49 50 52 53 53 46 47 47 46 43 43 40 40 41 38 44 40 42 43 49 46 43 43 43 40 40 41 40 38 40 42 43 44 45
62 62 63 63 63 63 64 64 65 65 65 65 65 65 64 63 63 63 63 63 63 63 63 64 64 65 65 65 65 65 64 63 62 61 61 60 59 58 58 58 59 59 58 56 55 55 54 53 55 54 52 51 51 51 49 52 47 52 52 48 47 46 46 45 36 32 41 47 47 45 44 47 44 45 44 36 37 39 49 37 39 42 43 43 44
62 63 63 63 63 63 64 64 65 65 65 65 65 65 63 63 63 63 63 63 63 63 63 64 65 64 64 64 64 62 61 61 60 59 59 59 58 58 57 57 57 57 58 55 54 54 54 53 54 54 54 55 52 50 49 48 46 47 51 51 55 52 47 37 35 38 34 38 39 41 41 38 39 38 39 38 39 41 40 46 44 42 41 42 42
63 63 63 63 63 63 64 65 65 65 65 66 65 64 63 63 63 63 63 63 63 63 63 64 64 64 63 61 60 60 60 59 58 57 57 57 57 56 56 56 55 55 56 54 54 54 55 55 54 54 54 54 52 50 48 46 43 42 52 47 51 47 47 47 43 36 37 32 32 36 41 43 39 39 44 41 39 41 42 42 42 43 42 42 41
63 63 63 63 63 63 64 65 65 65 66 66 65 64 63 63 63 63 63 63 63 63 64 64 63 62 61 59 59 58 58 58 57 56 56 56 57 55 55 55 56 56 56 55 54 53 51 51 51 51 51 50 51 50 47 45 44 41 44 44 45 45 45 46 47 46 43 38 39 35 35 40 41 44 44 44 44 42 45 44 48 47 48 45 40
63 63 63 64 63 63 64 65 65 65 66 66 65 64 63 63 63 63 62 63 63 63 63 63 62 61 59 58 58 57 56 56 55 55 55 55 55 56 56 55 54 56 56 54 53 53 51 51 50 50 50 50 49 49 48 47 47 47 45 45 45 44 42 42 43 42 41 42 39 37 40 36 35 40 45 43 42 44 43 42 42 41 34 37 35
63 63 63 64 63 63 64 65 65 65 66 65 65 64 64 63 63 63 63 63 63 63 62 61 61 60 58 58 57 56 56 55 55 55 55 55 56 57 56 55 55 57 54 52 52 51 51 50 50 49 48 48 48 48 48 47 46 46 45 45 44 42 41 41 40 42 40 38 38 38 39 40 37 41 42 45 48 45 40 41 39 33 35 35 36